Home > Time Zones > World Clock > Weather > Italy > Turin > Past weeks

Flag for Italy Weather past 2 weeks in Turin, Italy

Now
81 °F

Scattered clouds.


Feels Like: 83 °F
Forecast: 69 / 92 °F
Wind: 5 mph from Southwest

Location: Torino / Bric Della Croce

Current Time: Jul 2, 2015 at 8:24:34 PM

Latest Report: Jul 2, 2015 at 6:55 PM


Visibility: N/A

Pressure: 30.24 "Hg

Humidity: 66%

Dew point: 68 °F

Location of TurinLocation

Historic Weather in Turin — Graph

°F

Turin temperature yesterday

Maximum temperature yesterday: 82 °F (at 4:55 PM)
Minimum temperature yesterday: 70 °F (at 3:55 AM)
Average temperature yesterday: 75 °F

Past Weeks' High & Low Weather Summary

 TemperatureHumidityPressure
High82 °F (Jul 1, 4:55 PM)100% (Jun 19, 8:55 AM)30.27 "Hg (Jun 19, 8:55 AM)
Low54 °F (Jun 24, 6:55 AM)31% (Jun 23, 7:55 PM)29.77 "Hg (Jun 23, 5:55 AM)
Average69 °F69%30.07 "Hg
* Reported Jun 17 6:55 PM — Jul 2 6:55 PM, Turin, Weather by CustomWeather, © 2015

Note: Actual official high and low records may vary slightly from our data, if they occured in-between our weather recording intervals... More about our weather records

Advertising

Turin weather history for previous 24 hours

 ConditionsComfort  
Time TempWeatherWind HumidityBarometerVisibility
6:55 PM
Thu, Jul 2
81 °FScattered clouds.5 mph66%30.24 "HgN/A
5:55 PM82 °FSunny.No wind62%30.24 "Hg10 mi
4:55 PM82 °FSunny.No wind62%30.24 "Hg10 mi
3:55 PM82 °FSunny.3 mph58%30.24 "Hg10 mi
2:55 PM81 °FSunny.5 mph62%30.24 "Hg10 mi
1:55 PM81 °FSunny.No wind66%30.27 "Hg10 mi
12:55 PM77 °FSunny.No wind74%30.27 "Hg10 mi
11:55 AM77 °FSunny.No wind74%30.27 "Hg10 mi
10:55 AM75 °FSunny.No wind83%30.27 "Hg10 mi
9:55 AM73 °FScattered clouds.No wind83%30.27 "HgN/A
8:55 AM72 °FPartly sunny.No wind83%30.27 "HgN/A
7:55 AM72 °FPartly sunny.No wind83%30.24 "HgN/A
6:55 AM72 °FPartly sunny.No wind78%30.24 "HgN/A
5:55 AM72 °FPassing clouds.No wind73%30.24 "HgN/A
4:55 AM73 °FClear.No wind65%30.24 "Hg10 mi
3:55 AM73 °FClear.No wind65%30.24 "Hg10 mi
2:55 AM73 °FClear.No wind69%30.24 "Hg10 mi
1:55 AM72 °FClear.No wind69%30.24 "Hg10 mi
12:55 AM73 °FClear.6 mph61%30.24 "Hg10 mi
11:55 PM
Wed, Jul 1
75 °FClear.7 mph61%30.24 "Hg10 mi
10:55 PM75 °FClear.7 mph69%30.21 "Hg10 mi
9:55 PM77 °FPassing clouds.No wind65%30.21 "HgN/A
8:55 PM79 °FPartly sunny.No wind61%30.21 "HgN/A
Weather by CustomWeather, © 2015

See weather overviewHow to use our weather pages